Flag for U.S.A. Weather past 2 weeks in Galveston, Texas, U.S.A.

Now
81 °F

Scattered clouds.


Feels Like: 86 °F
Forecast: 74 / 79 °F
Wind: 16 mph from Southeast

Location: Scholes Field

Current Time: May 6, 2015 at 1:31:21 PM

Latest Report: May 6, 2015 at 12:52 PM


Visibility: 10 mi

Pressure: 30.00 "Hg

Humidity: 77%

Dew point: 73 °F

Location of GalvestonLocation

Historic Weather in Galveston — Graph

°F

Galveston temperature yesterday

Maximum temperature yesterday: 81 °F (at 11:52 AM)
Minimum temperature yesterday: 73 °F (at 12:52 AM)
Average temperature yesterday: 77 °F

Past Weeks' High & Low Weather Summary

 TemperatureHumidityPressure
High81 °F (Apr 24, 2:52 PM)100% (Apr 23, 5:52 AM)30.14 "Hg (Apr 23, 5:52 AM)
Low57 °F (Apr 29, 5:52 AM)35% (Apr 30, 3:52 PM)29.57 "Hg (Apr 27, 4:52 AM)
Average73 °F79%29.92 "Hg
* Reported Apr 21 11:52 AM — May 6 11:59 AM, Galveston, Weather by CustomWeather, © 2015

Note: Actual official high and low records may vary slightly from our data, if they occured in-between our weather recording intervals... More about our weather records

Advertising

Galveston weather history for previous 24 hours

 ConditionsComfort  
Time TempWeatherWind HumidityBarometerVisibility
11:59 AM
Wed, May 6
81 °FPartly sunny.16 mph77%30.00 "Hg10 mi
10:52 AM80 °FPassing clouds.18 mph79%30.00 "Hg10 mi
9:52 AM79 °FPassing clouds.15 mph82%30.00 "Hg10 mi
8:52 AM77 °FScattered clouds.16 mph85%30.00 "Hg6 mi
7:52 AM76 °FPassing clouds.14 mph88%29.99 "Hg10 mi
6:52 AM74 °FOvercast.15 mph91%29.97 "Hg10 mi
5:52 AM74 °FMostly cloudy.18 mph91%29.96 "Hg10 mi
4:52 AM74 °FOvercast.21 mph91%29.96 "Hg10 mi
3:52 AM75 °FMostly cloudy.17 mph88%29.97 "Hg10 mi
2:52 AM75 °FPassing clouds.18 mph85%29.98 "Hg10 mi
1:52 AM75 °FClear.21 mph82%29.99 "Hg10 mi
12:52 AM75 °FClear.22 mph82%30.01 "Hg10 mi
11:52 PM
Tue, May 5
75 °FClear.18 mph82%30.02 "Hg10 mi
10:52 PM75 °FPassing clouds.20 mph85%30.03 "Hg10 mi
9:52 PM75 °FMostly cloudy.17 mph88%30.03 "Hg10 mi
8:52 PM76 °FScattered clouds.17 mph85%30.01 "Hg10 mi
7:52 PM76 °FSunny.16 mph85%29.99 "Hg10 mi
6:52 PM77 °FScattered clouds.17 mph82%29.98 "Hg10 mi
5:52 PM79 °FMore clouds than sun.17 mph77%29.99 "Hg10 mi
4:52 PM79 °FOvercast.17 mph77%29.99 "Hg10 mi
3:52 PM79 °FBroken clouds.18 mph77%30.00 "Hg10 mi
2:52 PM79 °FPartly sunny.20 mph77%30.02 "Hg10 mi
1:52 PM81 °FPassing clouds.22 mph74%30.04 "Hg10 mi
Weather by CustomWeather, © 2015

See weather overviewHow to use our weather pages